When you browse on this site, cookies collect data to enhance your experience and personalize the content and advertising you see.
Visit our Privacy Policy to learn more. By continuing to use the site, you agree to this use of cookies and data.

Tiempo cada hora Exeter

Hoy, 22 Septiembre, Martes

Tiempo Temperatura Precipitaciones Viento Presión Humedad
00:00 +14°C° 0 mm 0 mps 753 mmHg 89%
01:00 +14°C° 0 mm 0 mps 752 mmHg 89%
02:00 +14°C° 0 mm 0 mps 752 mmHg 89%
03:00 +14°C° 0 mm 0 mps 751 mmHg 89%
04:00 +14°C° 0 mm 1 mps 751 mmHg 89%
05:00 +14°C° 0 mm 1 mps 751 mmHg 89%
06:00 +14°C° 0 mm 1 mps 751 mmHg 89%
07:00 +15°C° 0 mm 1 mps 750 mmHg 85%
08:00 +18°C° 0 mm 1 mps 750 mmHg 80%
09:00 +18°C° 0 mm 2 mps 750 mmHg 75%
10:00 +19°C° 0 mm 3 mps 750 mmHg 75%
11:00 +20°C° 0 mm 4 mps 749 mmHg 75%
12:00 +21°C° 0 mm 5 mps 749 mmHg 75%
13:00 +20°C° 0.1 mm 5 mps 748 mmHg 77%
14:00 +20°C° 0.1 mm 5 mps 748 mmHg 79%
15:00 +19°C° 0.1 mm 6 mps 747 mmHg 81%
16:00 +17°C° 0.1 mm 5 mps 747 mmHg 84%
17:00 +17°C° 0.1 mm 4 mps 747 mmHg 87%
18:00 +16°C° 0.1 mm 3 mps 746 mmHg 90%
19:00 +16°C° 0.1 mm 3 mps 746 mmHg 91%
20:00 +16°C° 0.1 mm 3 mps 746 mmHg 92%
21:00 +15°C° 0.1 mm 2 mps 746 mmHg 94%
22:00 +14°C° 0.2 mm 3 mps 745 mmHg 94%
23:00 +14°C° 0.2 mm 3 mps 745 mmHg 94%

Mañana, 23 Septiembre, Miércoles

Tiempo Temperatura Precipitaciones Viento Presión Humedad
00:00 +13°C° 0.2 mm 3 mps 745 mmHg 94%
01:00 +13°C° 0 mm 3 mps 744 mmHg 94%
02:00 +13°C° 0 mm 3 mps 744 mmHg 94%
03:00 +13°C° 0 mm 4 mps 744 mmHg 94%
04:00 +13°C° 0.6 mm 4 mps 744 mmHg 94%
05:00 +12°C° 0.6 mm 4 mps 744 mmHg 94%
06:00 +12°C° 0.6 mm 4 mps 744 mmHg 94%
07:00 +12°C° 0.1 mm 4 mps 744 mmHg 90%
08:00 +12°C° 0.1 mm 4 mps 744 mmHg 87%
09:00 +12°C° 0.1 mm 4 mps 744 mmHg 83%
10:00 +13°C° 0 mm 4 mps 745 mmHg 76%
11:00 +14°C° 0 mm 4 mps 745 mmHg 70%
12:00 +14°C° 0 mm 4 mps 745 mmHg 63%
13:00 +14°C° 0 mm 4 mps 745 mmHg 63%
14:00 +14°C° 0 mm 3 mps 744 mmHg 64%
15:00 +14°C° 0 mm 3 mps 744 mmHg 64%
16:00 +12°C° 0.1 mm 3 mps 744 mmHg 68%
17:00 +11°C° 0.1 mm 3 mps 744 mmHg 72%
18:00 +10°C° 0.1 mm 3 mps 743 mmHg 76%
19:00 +9°C° 0 mm 3 mps 744 mmHg 78%
20:00 +8°C° 0 mm 3 mps 744 mmHg 79%
21:00 +7°C° 0 mm 3 mps 744 mmHg 80%
22:00 +7°C° 0 mm 3 mps 744 mmHg 81%
23:00 +7°C° 0 mm 3 mps 743 mmHg 82%

Pasado mañana, 24 Septiembre, Jueves

Tiempo Temperatura Precipitaciones Viento Presión Humedad
00:00 +7°C° 0 mm 3 mps 743 mmHg 82%
01:00 +6°C° 0.4 mm 4 mps 742 mmHg 85%
02:00 +7°C° 0.4 mm 5 mps 742 mmHg 88%
03:00 +8°C° 0.4 mm 6 mps 741 mmHg 91%
04:00 +8°C° 0.9 mm 6 mps 740 mmHg 89%
05:00 +7°C° 0.9 mm 6 mps 740 mmHg 87%
06:00 +7°C° 0.9 mm 6 mps 740 mmHg 85%
07:00 +8°C° 0.2 mm 7 mps 740 mmHg 84%
08:00 +8°C° 0.2 mm 7 mps 740 mmHg 82%
09:00 +9°C° 0.2 mm 7 mps 740 mmHg 81%
10:00 +9°C° 0.5 mm 7 mps 740 mmHg 78%
11:00 +10°C° 0.5 mm 8 mps 740 mmHg 75%
12:00 +10°C° 0.5 mm 8 mps 739 mmHg 71%
13:00 +10°C° 0.3 mm 8 mps 739 mmHg 70%
14:00 +10°C° 0.3 mm 8 mps 739 mmHg 68%
15:00 +10°C° 0.3 mm 8 mps 738 mmHg 67%
16:00 +9°C° 0.1 mm 8 mps 737 mmHg 70%
17:00 +9°C° 0.1 mm 7 mps 737 mmHg 72%
18:00 +8°C° 0.1 mm 6 mps 736 mmHg 75%
19:00 +8°C° 0.6 mm 6 mps 736 mmHg 80%
20:00 +7°C° 0.6 mm 5 mps 736 mmHg 86%
21:00 +7°C° 0.6 mm 4 mps 736 mmHg 91%
22:00 +7°C° 0.1 mm 4 mps 736 mmHg 92%
23:00 +7°C° 0.1 mm 5 mps 737 mmHg 92%

25 Septiembre, Viernes

Tiempo Temperatura Precipitaciones Viento Presión Humedad
00:00 +6°C° 0.1 mm 5 mps 737 mmHg 93%
01:00 +6°C° 0.1 mm 5 mps 738 mmHg 91%
02:00 +5°C° 0.1 mm 6 mps 739 mmHg 88%
03:00 +6°C° 0.1 mm 7 mps 740 mmHg 86%
04:00 +6°C° 0.1 mm 7 mps 741 mmHg 87%
05:00 +7°C° 0.1 mm 6 mps 742 mmHg 88%
06:00 +7°C° 0.1 mm 6 mps 744 mmHg 89%
07:00 +8°C° 0.1 mm 7 mps 745 mmHg 85%
08:00 +7°C° 0.1 mm 8 mps 746 mmHg 81%
09:00 +9°C° 0.1 mm 8 mps 747 mmHg 77%
10:00 +10°C° 0.1 mm 8 mps 748 mmHg 73%
11:00 +11°C° 0.1 mm 9 mps 748 mmHg 68%
12:00 +12°C° 0.1 mm 9 mps 749 mmHg 64%
13:00 +11°C° 0.1 mm 9 mps 750 mmHg 65%
14:00 +11°C° 0.1 mm 10 mps 750 mmHg 67%
15:00 +11°C° 0.1 mm 10 mps 751 mmHg 68%
16:00 +9°C° 0.1 mm 10 mps 751 mmHg 70%
17:00 +8°C° 0.1 mm 9 mps 752 mmHg 73%
18:00 +7°C° 0.1 mm 8 mps 752 mmHg 75%
19:00 +7°C° 0 mm 8 mps 753 mmHg 75%
20:00 +6°C° 0 mm 7 mps 754 mmHg 76%
21:00 +7°C° 0 mm 6 mps 755 mmHg 76%
22:00 +5°C° 0 mm 6 mps 755 mmHg 77%
23:00 +6°C° 0 mm 5 mps 755 mmHg 78%

26 Septiembre, Sábado

Tiempo Temperatura Precipitaciones Viento Presión Humedad
00:00 +6°C° 0 mm 5 mps 755 mmHg 79%
01:00 +6°C° 0 mm 5 mps 755 mmHg 79%
02:00 +6°C° 0 mm 5 mps 755 mmHg 78%
03:00 +6°C° 0 mm 5 mps 755 mmHg 78%
04:00 +5°C° 0 mm 4 mps 755 mmHg 79%
05:00 +5°C° 0 mm 4 mps 755 mmHg 81%
06:00 +5°C° 0 mm 4 mps 756 mmHg 82%
07:00 +6°C° 0 mm 4 mps 756 mmHg 76%
08:00 +8°C° 0 mm 4 mps 756 mmHg 69%
09:00 +9°C° 0 mm 5 mps 756 mmHg 62%
10:00 +11°C° 0 mm 4 mps 756 mmHg 59%
11:00 +12°C° 0 mm 4 mps 756 mmHg 56%
12:00 +12°C° 0 mm 4 mps 756 mmHg 53%
13:00 +12°C° 0 mm 4 mps 756 mmHg 54%
14:00 +12°C° 0 mm 4 mps 756 mmHg 55%
15:00 +12°C° 0 mm 4 mps 756 mmHg 56%
16:00 +11°C° 0 mm 3 mps 756 mmHg 62%
17:00 +9°C° 0 mm 3 mps 756 mmHg 69%
18:00 +8°C° 0 mm 3 mps 756 mmHg 76%
19:00 +7°C° 0 mm 2 mps 756 mmHg 78%
20:00 +7°C° 0 mm 2 mps 757 mmHg 80%
21:00 +6°C° 0 mm 2 mps 757 mmHg 82%
22:00 +6°C° 0 mm 2 mps 757 mmHg 82%
23:00 +5°C° 0 mm 2 mps 757 mmHg 83%

27 Septiembre, Domingo

Tiempo Temperatura Precipitaciones Viento Presión Humedad
00:00 +5°C° 0 mm 2 mps 757 mmHg 84%
01:00 +5°C° 0 mm 2 mps 757 mmHg 84%
02:00 +6°C° 0 mm 1 mps 757 mmHg 84%
03:00 +6°C° 0 mm 1 mps 757 mmHg 84%
04:00 +6°C° 0 mm 1 mps 757 mmHg 85%
05:00 +6°C° 0 mm 1 mps 757 mmHg 85%
06:00 +6°C° 0 mm 1 mps 757 mmHg 85%
07:00 +7°C° 0 mm 1 mps 757 mmHg 80%
08:00 +9°C° 0 mm 1 mps 758 mmHg 75%
09:00 +10°C° 0 mm 0 mps 758 mmHg 70%
10:00 +12°C° 0 mm 1 mps 758 mmHg 67%
11:00 +13°C° 0 mm 2 mps 758 mmHg 64%
12:00 +14°C° 0 mm 2 mps 758 mmHg 60%
13:00 +13°C° 0 mm 3 mps 757 mmHg 63%
14:00 +14°C° 0 mm 3 mps 757 mmHg 65%
15:00 +14°C° 0 mm 4 mps 757 mmHg 67%
16:00 +13°C° 0 mm 3 mps 757 mmHg 74%
17:00 +12°C° 0 mm 3 mps 757 mmHg 81%
18:00 +11°C° 0 mm 3 mps 756 mmHg 89%
19:00 +11°C° 0 mm 3 mps 756 mmHg 89%
20:00 +11°C° 0 mm 4 mps 756 mmHg 90%
21:00 +12°C° 0 mm 4 mps 756 mmHg 91%
22:00 +12°C° 0 mm 4 mps 756 mmHg 92%
23:00 +12°C° 0 mm 4 mps 756 mmHg 92%
Mostrar más